Temperature
7 5 5 6 7 7 7 7 7 7 8 7 7 7 7 7 7 7 7 8 8 8 8 8 8 9 9 9 9 9 9 9 9 9 9 9 9 9 9 9 9 10 10 10
5 5 6 7 7 7 7 7 7 7 7 7 6 6 6 7 7 7 7 7 8 8 8 8 8 8 8 8 8 8 8 9 8 9 8 8 8 9 9 9 9 9 9 9
5 6 7 7 7 7 6 6 7 7 7 6 6 7 7 7 7 7 7 7 8 8 8 8 8 8 8 8 8 8 8 8 8 8 8 8 8 8 8 9 9 9 8 9
5 6 7 6 6 7 6 7 7 7 6 5 6 6 6 6 6 6 6 7 7 8 8 7 7 7 7 7 7 7 7 7 7 7 8 8 8 8 8 8 8 8 8 8
6 6 6 6 6 7 6 7 6 6 5 5 5 5 5 6 7 7 6 7 7 8 7 7 7 7 7 7 7 7 7 7 7 7 7 7 7 7 7 7 7 7 7 7
6 6 6 7 7 7 6 6 6 4 4 6 5 5 5 5 6 7 6 7 7 7 7 7 7 7 7 7 7 6 7 7 7 7 7 7 7 7 7 7 7 7 7 7
6 6 6 7 7 6 6 5 5 5 4 5 5 4 5 6 6 6 6 7 7 7 7 7 7 7 7 7 7 6 6 6 6 6 6 6 6 6 6 6 6 7 7 7
5 5 6 6 7 6 6 6 5 6 5 4 4 4 5 6 6 6 6 7 7 7 7 7 7 7 7 7 6 6 6 6 6 6 6 6 6 6 6 6 6 6 6 6
5 5 6 7 7 6 6 5 5 4 4 4 4 4 5 6 6 6 6 6 7 7 7 7 7 7 7 7 6 6 6 6 6 6 6 6 6 5 5 5 5 5 5 5
6 5 6 6 7 6 6 5 4 4 6 6 5 5 5 7 7 6 5 6 7 7 7 7 7 7 7 6 6 6 6 6 6 5 5 5 5 5 5 5 5 5 5 5
6 5 5 6 6 6 6 5 5 4 4 5 5 6 6 6 7 6 6 7 7 7 7 7 7 7 6 6 6 6 6 6 5 5 5 5 5 5 4 4 4 4 4 4
5 4 4 5 6 6 6 5 4 5 5 4 4 5 7 6 5 6 6 7 8 8 7 7 7 7 6 6 6 6 6 5 5 5 5 5 4 4 4 4 4 4 4 4
5 4 5 6 5 5 5 5 4 4 4 3 4 5 6 5 6 6 6 7 8 8 7 7 7 7 7 6 6 6 5 5 5 5 4 4 4 4 4 4 4 3 3 3
5 4 4 6 6 5 5 5 4 4 4 3 4 5 6 5 5 6 7 7 7 7 7 7 7 7 6 6 6 6 5 5 5 4 4 4 4 4 3 3 3 3 3 3
4 4 4 4 4 4 4 5 4 4 4 4 4 4 6 5 5 6 7 7 7 7 7 7 7 7 7 6 6 6 5 5 4 4 4 4 4 3 3 3 3 3 2 2
3 4 4 3 4 4 4 4 4 4 4 4 4 5 6 6 6 6 6 6 6 7 7 7 7 7 7 6 6 6 5 5 4 4 4 4 3 3 3 3 2 2 2 2
3 3 4 3 3 3 4 4 4 4 4 4 5 5 5 5 5 6 6 7 7 7 7 7 7 7 7 6 6 6 5 5 4 4 4 3 3 3 3 2 2 2 2 1
2 3 3 2 3 5 6 6 4 4 4 4 4 4 4 5 6 7 7 7 7 7 7 7 7 7 7 6 6 6 5 5 4 4 4 3 3 3 2 2 2 1 1 1
2 3 3 3 2 3 5 5 4 4 5 5 4 5 5 6 5 6 8 8 8 7 7 7 6 6 6 6 6 5 5 5 4 4 3 3 3 2 2 2 1 1 1 1
1 2 3 3 3 5 7 6 6 5 6 6 5 4 5 5 4 5 8 7 7 7 7 6 6 6 6 6 5 5 5 5 4 4 3 3 2 2 2 1 1 1 1 0
2 2 2 2 3 4 4 6 6 6 7 8 7 7 6 4 6 7 7 7 7 7 6 6 6 6 6 5 5 5 5 5 4 4 3 3 2 2 1 1 1 0 0 -0
2 2 2 2 3 4 5 4 5 6 7 7 7 7 7 7 7 7 7 7 6 6 6 6 6 6 5 5 5 5 5 4 4 3 3 2 2 1 1 1 0 0 -0 -1
1 2 2 3 5 6 6 6 7 7 7 7 7 7 6 6 6 6 6 6 6 6 6 6 5 5 5 5 4 4 4 4 3 3 3 2 2 1 1 0 0 -0 -1 -1
1 1 1 1 2 4 6 6 7 7 6 6 6 6 6 6 6 6 6 6 6 6 5 5 5 5 5 4 4 4 4 3 3 3 2 2 1 1 0 -0 -0 -1 -1 -1
2 1 0 1 2 4 6 7 7 7 6 6 6 6 5 5 5 5 5 5 5 5 5 5 5 5 5 4 4 4 3 3 3 2 2 1 1 1 0 -0 -1 -1 -1 -2
1 2 2 4 5 3 5 7 6 6 6 5 5 5 5 5 5 5 5 5 5 5 5 4 4 4 4 4 4 3 3 3 2 2 2 1 1 0 -0 -1 -1 -2 -2 -2
Wind_Speed
6 7 5 2 2 4 6 5 3 1 1 1 2 5 7 4 3 4 4 4 4 3 2 1 2 3 4 5 6 7 8 8 7 5 4 4 4 4 4 5 8 9 8 7
7 6 2 2 5 7 6 5 3 2 3 2 2 6 6 3 3 4 6 6 5 3 2 2 2 3 4 5 6 6 7 7 7 5 4 3 3 3 3 4 7 9 9 8
7 1 2 5 7 7 6 3 2 1 3 4 4 6 4 2 1 2 3 4 4 4 4 3 2 2 3 4 5 6 6 6 6 6 4 4 3 2 3 5 5 7 9 9
6 3 5 7 5 4 3 1 2 3 3 3 3 3 6 3 4 3 4 4 4 4 4 3 3 3 3 3 4 4 5 5 5 5 4 4 3 3 3 4 4 6 8 9
4 3 5 5 3 3 2 2 3 3 3 2 2 1 8 3 4 5 5 5 5 5 5 4 4 4 3 3 3 4 4 4 4 4 4 3 3 2 3 3 5 6 6 8
3 2 2 1 2 3 2 4 5 4 4 2 2 3 7 4 5 4 3 4 5 5 4 4 4 3 3 2 2 3 3 3 4 4 4 4 4 4 4 5 5 5 5 5
6 4 3 2 3 4 5 5 4 5 4 4 1 3 9 7 6 5 6 5 5 4 4 4 4 4 4 3 3 2 2 3 3 3 4 3 3 3 4 4 4 5 4 5
3 3 4 2 2 2 2 4 5 3 3 5 2 6 7 5 4 4 4 4 3 4 4 5 5 4 4 4 3 2 2 2 2 2 2 3 3 2 3 3 3 4 4 4
2 2 3 2 1 3 3 2 3 4 1 3 6 7 8 3 3 3 3 3 4 5 5 5 5 5 5 5 4 3 2 2 1 1 1 2 3 3 3 3 3 3 4 4
3 1 2 2 2 3 2 5 4 3 0 4 6 6 5 5 4 3 4 5 6 5 5 6 5 5 5 4 4 2 2 2 1 0 1 1 2 2 2 3 4 4 5 5
2 2 2 1 2 3 3 2 3 2 2 2 5 7 6 6 5 5 6 6 6 6 6 6 5 5 4 3 3 3 2 2 1 0 0 1 1 2 2 3 3 4 4 5
2 3 2 4 3 3 4 5 5 3 3 3 3 8 5 5 5 5 6 5 5 6 6 6 5 4 3 4 3 3 3 3 2 2 1 1 1 2 2 3 3 4 4 4
2 3 2 4 3 0 2 4 5 4 3 4 4 8 3 2 4 4 5 6 6 6 6 5 4 4 5 5 4 4 3 3 3 2 2 1 1 1 1 1 2 3 3 4
3 2 5 6 4 3 4 5 5 5 4 5 9 11 10 7 7 7 7 7 7 6 6 5 5 6 6 5 5 4 4 4 3 3 3 2 2 1 1 0 1 1 2 2
3 2 4 7 7 6 8 9 8 10 9 9 9 9 14 9 9 8 8 7 7 7 7 6 6 6 6 5 5 5 5 4 4 4 4 3 2 2 1 1 0 1 1 2
2 1 2 5 4 6 9 13 13 13 11 13 13 15 13 8 5 7 8 8 8 8 8 7 6 6 6 7 6 6 6 5 5 5 5 4 3 2 2 1 1 0 1 1
1 1 2 5 6 7 9 10 12 7 8 9 13 12 7 6 8 8 8 8 9 9 8 7 7 7 7 7 7 7 7 5 5 6 5 4 4 3 3 2 2 1 1 0
4 3 1 4 6 6 6 1 6 7 8 11 10 9 8 9 8 8 8 8 9 8 7 7 6 6 6 5 5 5 5 5 6 5 5 4 4 4 3 3 3 2 2 2
5 5 2 1 4 9 9 4 4 5 7 8 11 11 9 5 5 6 6 7 8 8 7 7 6 5 4 5 5 5 5 5 5 6 6 5 5 5 4 4 4 3 2 2
3 2 3 2 3 6 5 1 2 2 6 4 6 7 5 1 2 6 4 4 6 6 5 5 4 4 4 4 4 6 6 6 7 7 6 5 5 6 5 5 4 3 2 2
4 3 6 6 6 10 8 3 3 2 5 2 4 5 4 6 7 6 5 5 6 6 6 5 4 5 5 4 5 6 7 9 8 6 5 5 5 6 5 4 3 3 2 2
8 7 7 6 7 10 5 5 6 7 4 3 3 5 6 8 8 8 7 7 7 6 6 4 4 5 4 4 6 7 8 7 5 5 5 5 5 5 4 4 3 3 3 3
8 9 7 10 11 6 4 7 5 3 4 5 5 6 6 8 8 8 7 7 7 7 6 5 5 6 5 5 7 8 7 5 5 5 5 5 5 4 4 4 4 3 3 3
6 4 5 7 12 10 9 8 7 7 7 8 8 8 7 9 10 9 8 7 7 7 6 5 5 6 6 6 7 8 5 5 6 6 5 5 5 4 4 4 4 4 4 4
7 5 5 9 10 9 8 7 8 8 8 8 8 8 9 10 11 9 8 8 7 7 6 5 6 8 8 6 7 6 5 6 6 6 5 5 5 5 4 4 5 5 5 6
8 9 8 10 8 6 8 7 6 7 8 9 9 9 8 8 10 9 8 8 7 7 6 6 7 8 7 6 7 6 6 7 7 6 6 5 5 4 4 4 4 6 7 8
Wind_Direction
27 60 60 42 67 121 123 115 100 356 13 52 253 273 280 277 233 231 228 223 228 242 268 312 349 1 2 360 358 354 353 350 352 347 344 340 341 339 346 358 359 355 353 350
52 48 356 60 81 83 89 95 68 12 22 48 312 284 273 250 223 218 215 220 224 237 277 297 324 358 358 349 349 351 350 346 347 340 322 307 312 321 333 353 3 3 2 357
88 11 10 74 69 73 53 97 116 42 6 38 355 312 288 278 237 214 211 213 220 219 237 263 290 318 334 339 342 342 340 342 344 343 340 343 351 342 352 357 358 2 5 4
64 30 63 66 51 74 62 22 104 76 55 348 37 304 286 283 285 251 234 227 231 232 236 249 266 291 303 310 325 327 331 339 344 352 2 8 14 1 345 342 346 351 3 5
54 40 59 61 30 85 126 64 84 83 90 5 19 207 286 305 273 263 245 234 236 233 234 244 250 261 278 298 317 321 327 339 349 0 9 18 16 353 336 350 359 1 0 6
53 26 56 79 40 72 104 69 61 50 61 326 253 188 280 251 235 263 254 236 235 234 241 249 252 260 277 299 315 319 328 339 351 6 17 25 16 4 7 7 4 1 358 2
18 13 15 46 63 34 62 76 35 4 3 263 234 217 253 256 239 235 251 251 240 232 235 247 253 261 273 285 296 309 334 342 352 11 22 21 14 12 13 4 3 3 3 2
59 340 337 13 92 111 70 115 142 197 250 289 289 243 257 260 266 254 250 247 240 236 239 246 246 245 254 262 268 281 303 318 348 9 14 21 20 23 17 14 13 12 6 360
111 282 323 357 48 121 111 104 143 131 162 286 279 281 296 258 264 259 261 259 253 249 252 255 254 246 245 249 250 246 255 281 318 353 28 41 34 36 30 23 25 21 12 12
129 146 310 330 66 36 118 139 99 112 175 292 295 277 261 274 262 262 252 255 259 255 256 260 258 250 243 239 245 239 229 238 261 317 43 66 50 42 40 41 33 28 20 18
102 129 316 1 195 188 134 126 122 127 165 197 291 279 228 227 238 246 253 252 255 254 254 256 257 252 245 239 232 233 229 224 227 221 92 78 60 50 54 50 34 27 26 23
102 117 261 262 258 200 184 183 159 169 224 199 237 272 267 238 249 251 261 265 263 259 256 255 253 248 242 237 230 225 222 216 212 191 158 130 86 64 55 41 28 28 26 23
138 108 14 351 348 229 225 203 183 161 157 188 217 265 294 307 284 271 267 273 273 269 267 262 249 241 239 235 229 223 221 218 209 178 163 152 124 91 58 35 23 28 24 23
116 152 190 214 233 202 236 227 192 170 198 225 232 257 278 283 286 286 278 270 269 266 261 254 249 245 242 234 226 219 223 214 200 181 173 181 191 184 175 84 41 33 30 29
101 224 247 257 262 247 242 238 214 212 213 223 245 249 266 263 258 262 264 265 266 268 264 254 248 246 239 234 228 219 217 207 194 185 188 204 203 184 166 145 64 32 30 26
84 239 303 288 273 264 261 247 229 230 231 240 261 273 269 267 251 257 259 257 258 260 260 259 253 244 236 231 227 220 218 207 189 192 201 201 188 182 183 191 180 78 18 2
145 141 327 287 310 318 272 239 208 209 213 208 235 247 268 276 262 255 254 252 252 255 257 257 253 243 237 229 218 216 214 195 186 197 202 197 192 195 200 190 182 207 234 252
162 154 217 299 342 272 249 221 189 214 239 219 235 254 257 253 266 262 247 243 251 251 254 256 251 249 242 228 217 210 193 185 192 200 204 202 196 203 201 193 207 222 221 228
174 162 194 277 294 280 291 254 183 202 270 225 228 253 263 277 307 289 248 225 236 244 249 249 247 246 239 231 212 191 190 189 195 206 210 206 199 202 203 209 218 218 211 232
130 148 181 202 259 260 261 247 177 137 284 246 206 242 255 153 297 279 271 255 259 261 256 253 253 242 237 229 190 185 196 197 210 213 211 202 196 198 208 215 217 215 211 229
150 185 211 220 245 268 258 238 128 191 262 288 212 238 219 212 233 262 284 277 263 264 263 255 249 242 238 212 184 197 203 215 218 205 197 196 196 200 205 205 204 205 212 228
186 186 201 193 220 256 230 150 188 227 276 278 259 249 243 250 265 274 275 273 271 270 269 262 253 257 247 201 190 209 221 221 198 188 194 201 200 201 197 192 203 202 200 218
208 199 195 202 221 247 206 213 238 247 271 272 264 265 261 264 269 273 273 272 269 261 258 251 245 257 253 215 201 218 228 200 184 188 200 204 198 199 193 192 200 204 204 216
253 204 215 253 261 261 260 257 262 258 256 264 265 269 263 263 267 270 272 272 267 262 255 248 243 250 253 232 220 225 217 185 184 196 203 197 194 201 200 203 204 206 210 218
236 194 225 257 274 295 279 253 260 268 266 266 267 264 259 261 266 264 268 269 264 262 257 242 238 245 250 241 233 226 201 182 190 199 201 198 200 200 203 211 215 218 218 215
206 202 211 246 244 241 271 277 273 273 273 273 277 279 271 256 260 265 265 265 263 260 255 251 247 246 250 241 238 225 198 188 189 199 202 200 199 201 202 210 240 245 239 245
Height
1493 1498 1505 1505 1504 1505 1508 1511 1513 1513 1512 1513 1514 1513 1510 1509 1509 1508 1509 1509 1510 1511 1511 1511 1511 1510 1509 1508 1507 1505 1504 1502 1500 1499 1498 1496 1495 1494 1493 1492 1491 1490 1489 1488
1501 1506 1506 1504 1504 1506 1509 1512 1515 1514 1513 1514 1515 1513 1508 1506 1506 1506 1506 1507 1508 1508 1509 1509 1509 1508 1507 1506 1505 1503 1502 1500 1499 1497 1496 1495 1494 1492 1491 1490 1489 1488 1487 1485
1506 1509 1506 1506 1507 1510 1513 1515 1516 1517 1516 1516 1517 1512 1507 1505 1504 1504 1504 1505 1506 1506 1507 1507 1507 1506 1505 1504 1503 1501 1500 1498 1497 1496 1495 1493 1492 1491 1490 1488 1487 1486 1484 1483
1508 1509 1508 1509 1512 1512 1516 1515 1515 1517 1521 1524 1523 1523 1509 1505 1504 1502 1502 1502 1503 1504 1505 1505 1505 1504 1503 1502 1501 1500 1498 1497 1496 1494 1493 1492 1490 1489 1488 1487 1485 1484 1483 1481
1512 1511 1511 1513 1514 1514 1517 1516 1517 1519 1522 1526 1526 1527 1514 1506 1503 1500 1500 1500 1501 1502 1502 1503 1503 1502 1502 1501 1499 1498 1497 1496 1494 1493 1492 1490 1489 1488 1487 1486 1484 1483 1481 1480
1513 1513 1513 1514 1515 1515 1516 1518 1520 1524 1526 1527 1525 1529 1518 1508 1501 1498 1497 1498 1499 1500 1500 1501 1501 1500 1500 1499 1498 1496 1495 1494 1493 1491 1490 1489 1488 1487 1486 1484 1483 1481 1480 1478
1517 1516 1515 1515 1516 1517 1518 1524 1532 1530 1535 1530 1526 1527 1516 1500 1497 1497 1496 1496 1496 1498 1498 1498 1498 1498 1497 1497 1496 1495 1494 1492 1491 1490 1489 1488 1487 1485 1484 1483 1481 1479 1478 1476
1522 1524 1518 1517 1517 1519 1521 1524 1532 1530 1533 1532 1526 1524 1507 1496 1495 1494 1494 1494 1495 1496 1496 1496 1496 1496 1495 1494 1494 1493 1492 1491 1490 1489 1487 1486 1485 1484 1483 1481 1480 1478 1476 1475
1522 1524 1518 1517 1517 1518 1521 1526 1527 1535 1536 1535 1527 1519 1503 1494 1493 1493 1493 1493 1493 1494 1494 1494 1494 1494 1493 1492 1492 1491 1490 1489 1488 1487 1486 1485 1484 1483 1481 1480 1479 1477 1475 1474
1519 1523 1520 1518 1518 1519 1520 1524 1530 1532 1529 1527 1522 1518 1509 1495 1492 1492 1492 1492 1491 1492 1492 1492 1491 1491 1490 1490 1489 1489 1488 1487 1487 1486 1485 1484 1483 1482 1480 1479 1478 1476 1474 1473
1518 1523 1523 1520 1519 1520 1522 1524 1527 1531 1532 1530 1528 1513 1496 1493 1490 1491 1490 1490 1490 1490 1490 1489 1489 1489 1488 1487 1487 1486 1486 1485 1485 1484 1483 1482 1481 1480 1479 1478 1476 1475 1473 1472
1520 1524 1526 1521 1518 1518 1519 1521 1526 1528 1529 1532 1531 1514 1490 1490 1489 1489 1488 1488 1488 1487 1487 1487 1486 1486 1485 1485 1484 1484 1483 1483 1482 1482 1481 1480 1480 1479 1477 1476 1475 1474 1472 1471
1519 1524 1527 1522 1523 1521 1519 1519 1521 1524 1527 1531 1530 1510 1490 1488 1487 1487 1487 1486 1485 1485 1484 1484 1483 1483 1482 1482 1481 1481 1481 1480 1480 1480 1479 1478 1478 1477 1476 1474 1473 1472 1471 1469
1517 1523 1526 1522 1517 1517 1517 1516 1518 1521 1524 1523 1515 1502 1490 1488 1487 1486 1485 1483 1483 1482 1481 1481 1480 1479 1479 1479 1478 1478 1478 1478 1478 1477 1477 1476 1475 1475 1474 1473 1472 1470 1469 1468
1518 1522 1521 1519 1516 1516 1514 1512 1513 1514 1512 1512 1503 1499 1486 1485 1485 1483 1481 1480 1479 1478 1478 1477 1476 1476 1475 1475 1475 1475 1475 1475 1475 1474 1474 1473 1473 1472 1472 1471 1470 1468 1467 1466
1519 1521 1520 1519 1513 1514 1511 1505 1506 1505 1504 1501 1498 1492 1480 1480 1480 1479 1478 1477 1476 1475 1474 1473 1473 1472 1472 1471 1472 1472 1472 1472 1472 1471 1471 1471 1470 1470 1469 1468 1467 1466 1465 1464
1521 1521 1521 1521 1516 1511 1504 1493 1494 1496 1493 1493 1492 1484 1478 1478 1477 1475 1474 1473 1472 1471 1471 1470 1469 1469 1468 1468 1468 1468 1468 1468 1468 1468 1468 1468 1467 1467 1466 1465 1464 1463 1462 1461
1521 1521 1522 1523 1518 1509 1490 1484 1485 1487 1485 1484 1481 1478 1476 1474 1473 1471 1470 1469 1468 1468 1467 1467 1466 1465 1465 1465 1464 1464 1464 1464 1464 1464 1464 1464 1464 1463 1463 1462 1461 1460 1459 1457
1517 1519 1522 1523 1522 1508 1488 1483 1483 1485 1481 1475 1476 1474 1472 1472 1471 1468 1467 1466 1466 1465 1464 1464 1463 1462 1461 1461 1460 1460 1460 1460 1460 1460 1461 1461 1460 1460 1459 1458 1457 1456 1455 1454
1517 1518 1522 1522 1517 1503 1482 1480 1479 1482 1478 1470 1471 1470 1470 1471 1473 1467 1464 1463 1463 1462 1461 1460 1459 1458 1457 1457 1456 1456 1456 1456 1456 1456 1457 1457 1456 1456 1455 1454 1454 1453 1451 1450
1517 1519 1519 1519 1515 1499 1482 1478 1480 1484 1475 1469 1468 1468 1468 1468 1466 1464 1461 1460 1459 1458 1457 1456 1455 1454 1453 1453 1452 1451 1451 1451 1452 1452 1452 1452 1452 1451 1451 1450 1449 1448 1447 1446
1510 1513 1513 1513 1512 1496 1475 1477 1478 1474 1468 1467 1466 1465 1464 1462 1461 1459 1458 1456 1455 1454 1453 1452 1450 1449 1449 1448 1448 1447 1447 1447 1448 1448 1448 1447 1447 1447 1446 1445 1445 1444 1443 1441
1502 1498 1497 1495 1486 1473 1471 1470 1468 1468 1467 1465 1464 1462 1461 1459 1457 1455 1453 1452 1450 1449 1448 1447 1446 1445 1445 1444 1443 1443 1443 1443 1443 1443 1443 1443 1443 1442 1442 1441 1440 1439 1438 1437
1492 1490 1491 1488 1475 1469 1467 1466 1465 1465 1463 1462 1460 1459 1457 1454 1452 1450 1449 1447 1446 1444 1443 1442 1441 1440 1439 1439 1439 1438 1438 1438 1438 1438 1438 1438 1437 1437 1437 1436 1435 1435 1434 1432
1486 1486 1486 1481 1470 1466 1462 1461 1461 1460 1458 1457 1455 1454 1452 1449 1447 1445 1443 1442 1440 1439 1438 1437 1436 1435 1434 1434 1433 1433 1433 1433 1433 1433 1433 1433 1433 1432 1432 1431 1430 1429 1429 1428
1476 1477 1478 1470 1464 1464 1459 1458 1457 1455 1454 1452 1450 1447 1446 1444 1442 1440 1438 1437 1435 1434 1433 1432 1430 1429 1428 1428 1427 1428 1427 1427 1427 1427 1427 1427 1427 1427 1426 1426 1425 1424 1424 1423